TimeEST,TemperatureF,Dew PointF,Humidity,Sea Level PressureIn,VisibilityMPH,Wind Direction,Wind SpeedMPH,Gust SpeedMPH,PrecipitationIn,Events,Conditions,WindDirDegrees,DateUTC
12:56 AM,30.9,24.1,76,30.15,10.0,West,5.8,-,N/A,,Clear,280,2012-11-29 05:56:00
1:56 AM,30.9,23.0,72,30.17,10.0,WNW,5.8,-,N/A,,Clear,290,2012-11-29 06:56:00
2:56 AM,30.9,23.0,72,30.18,10.0,West,6.9,-,N/A,,Clear,270,2012-11-29 07:56:00
3:56 AM,30.9,24.1,76,30.18,10.0,West,9.2,-,N/A,,Clear,280,2012-11-29 08:56:00
4:56 AM,32.0,24.1,73,30.19,10.0,West,9.2,18.4,N/A,,Clear,280,2012-11-29 09:56:00
5:56 AM,30.9,23.0,72,30.20,10.0,West,8.1,-,N/A,,Clear,280,2012-11-29 10:56:00
6:56 AM,30.9,23.0,72,30.22,10.0,West,6.9,-,N/A,,Clear,280,2012-11-29 11:56:00
7:56 AM,33.1,24.1,70,30.25,10.0,West,8.1,-,N/A,,Clear,280,2012-11-29 12:56:00
8:56 AM,36.0,25.0,64,30.26,10.0,West,9.2,-,N/A,,Clear,280,2012-11-29 13:56:00
9:56 AM,39.0,24.1,55,30.27,10.0,WNW,13.8,19.6,N/A,,Clear,300,2012-11-29 14:56:00
10:56 AM,39.9,21.9,49,30.24,10.0,West,12.7,-,N/A,,Clear,270,2012-11-29 15:56:00
11:56 AM,42.1,23.0,47,30.22,10.0,West,12.7,20.7,N/A,,Clear,270,2012-11-29 16:56:00
12:56 PM,42.1,23.0,47,30.21,10.0,WSW,12.7,-,N/A,,Clear,250,2012-11-29 17:56:00
1:56 PM,42.1,25.0,51,30.18,10.0,SW,12.7,-,N/A,,Clear,220,2012-11-29 18:56:00
2:56 PM,41.0,25.0,53,30.19,10.0,WSW,17.3,23.0,N/A,,Clear,250,2012-11-29 19:56:00
3:56 PM,39.9,25.0,55,30.19,10.0,WSW,10.4,-,N/A,,Clear,240,2012-11-29 20:56:00
4:56 PM,39.0,26.1,60,30.19,10.0,WSW,13.8,-,N/A,,Clear,240,2012-11-29 21:56:00
5:56 PM,37.9,26.1,62,30.22,10.0,WSW,9.2,-,N/A,,Clear,250,2012-11-29 22:56:00
6:56 PM,39.0,28.9,67,30.22,10.0,WSW,9.2,-,N/A,,Clear,250,2012-11-29 23:56:00
7:56 PM,39.0,28.0,65,30.22,10.0,WSW,10.4,-,N/A,,Clear,250,2012-11-30 00:56:00
8:56 PM,39.9,27.0,60,30.22,10.0,WSW,12.7,-,N/A,,Clear,250,2012-11-30 01:56:00
9:56 PM,41.0,28.9,62,30.22,10.0,WSW,12.7,-,N/A,,Clear,250,2012-11-30 02:56:00
10:56 PM,42.1,28.0,58,30.22,10.0,West,15.0,26.5,N/A,,Clear,260,2012-11-30 03:56:00
11:56 PM,41.0,28.0,60,30.23,10.0,WSW,15.0,21.9,N/A,,Clear,250,2012-11-30 04:56:00